Middle River (Iowa), Indianola (05486490)

StateIowaLatestUnknown (343 cfs)
RiverMiddle RiverRatingObservedEstimated
Updated2026-05-05 7:15 (1 hour ago)Flood - The river is flooding. Obstacles can be treacherous or deadly. The river should be avoided at this stage for casual trips and definitely for the inexperienced. Trips should be attempted only with protective gear and equipment.Flood(none)(none)
Discharge343 cfs (median: 243 cfs)High - The river is high and potentially dangerous, especially for the young and / or inexperienced. Normal stream obstacles are sometimes difficult to navigate. Extended distances can be attempted, but canoe travel may not be advisable.High(none)(none)
Height8.36 feetGood - Conditions are ideal for a canoe or kayak. Boats typically will drag on fewer than one-quarter of riffles, if at all, and portages are unnecessary or rare. Normal float lengths can be attempted without a problem.Good(none)(none)
TrendFalling (falling over 24 hours)Low - River is low but can still be floated. Some riffles are okay but most come with significant dragging and might need a portage. Float lengths should be reduced to accommodate low flow, dragging, and portages.Low(none)(none)
USGSExternal icon USGS Site (External icon Duck Duck Go Maps)Poor - River is too low to float comfortably. Most or all riffles will drag or must be portaged and some obstacles (such as slick shelf rock) cause undue problems. Avoid the river at this stage for casual paddling trips.Poor(none)(none)

Trending Data

Plot Image

Trips for Middle River (Iowa), Indianola (05486490)

DateStartEndDistanceConditionDischargeHeightFishingDetails
Click for details2021-11-20 Pammel State Park Pammel State Park Total trip distance: 3.3 miles3.3 Low 75 7.35 None NoneNone Turner, SkipTurner, Skip Solo up and back, no access at Harmon Avenue. Indianola gauge 88.1 ft3/min, 7.35 ft.Solo up and back, no access at Harmon Avenue. Indianola gauge 88.1 ft3/min, 7.35 ft. USGS Gauge Data:
Indianola (05486490)
Discharge: 75
Height: 7.35
<b>USGS Gauge Data:</b></br />Indianola (05486490)<br />Discharge: 75<br />Height: 7.35
Source: TurnerSource: Turner

A total of 1 rows are displayed.

Trip Summary for Middle River (Iowa), Indianola (05486490)

Miles3.3
Trips1
People1
Dates1
Years1
Months1
Rows1
Sources1

Condition Descriptions

Fishing Conditions

Fish Species

Notes

Classic Trip List

The classic River Trips application is still available for use. It is updated with the new system using a data retrofit. It is no longer maintained. The original River Trips application is no longer updated (as of 1 Dec 2016) but can be checked for errors or for the condition of the data before it was converted to the new system.

Gauge Data Table

ObservationHeightDischargeMaximum
Discharge
Minimum
Discharge
Mean
Discharge
P05P10P20P25P50
(Median)
P75P80P90P95
2026-05-05 07:15 8.36 343 2950 (2003) 5 (1956) 450 24 41 81 107 243 654 780 1040 1280
2026-05-05 06:15 8.37 345 2950 (2003) 5 (1956) 450 24 41 81 107 243 654 780 1040 1280
2026-05-05 05:15 8.37 345 2950 (2003) 5 (1956) 450 24 41 81 107 243 654 780 1040 1280
2026-05-05 04:15 8.37 345 2950 (2003) 5 (1956) 450 24 41 81 107 243 654 780 1040 1280
2026-05-05 03:15 8.38 348 2950 (2003) 5 (1956) 450 24 41 81 107 243 654 780 1040 1280
2026-05-05 02:15 8.38 348 2950 (2003) 5 (1956) 450 24 41 81 107 243 654 780 1040 1280
2026-05-05 01:15 8.39 350 2950 (2003) 5 (1956) 450 24 41 81 107 243 654 780 1040 1280
2026-05-05 00:15 8.39 350 2950 (2003) 5 (1956) 450 24 41 81 107 243 654 780 1040 1280
2026-05-04 23:15 8.39 350 2950 (2003) 5 (1956) 450 24 41 81 107 243 654 780 1040 1280
2026-05-04 22:15 8.40 353 2520 (1944) 5 (1956) 481 24 36 86 101 246 592 789 1190 2050
2026-05-04 21:15 8.41 355 2520 (1944) 5 (1956) 481 24 36 86 101 246 592 789 1190 2050
2026-05-04 20:15 8.42 358 2520 (1944) 5 (1956) 481 24 36 86 101 246 592 789 1190 2050
2026-05-04 19:15 8.42 358 2520 (1944) 5 (1956) 481 24 36 86 101 246 592 789 1190 2050
2026-05-04 18:15 8.41 355 2520 (1944) 5 (1956) 481 24 36 86 101 246 592 789 1190 2050
2026-05-04 17:15 8.41 355 2520 (1944) 5 (1956) 481 24 36 86 101 246 592 789 1190 2050
2026-05-04 16:15 8.42 358 2520 (1944) 5 (1956) 481 24 36 86 101 246 592 789 1190 2050
2026-05-04 15:15 8.42 358 2520 (1944) 5 (1956) 481 24 36 86 101 246 592 789 1190 2050
2026-05-04 14:15 8.42 358 2520 (1944) 5 (1956) 481 24 36 86 101 246 592 789 1190 2050
2026-05-04 13:15 8.43 360 2520 (1944) 5 (1956) 481 24 36 86 101 246 592 789 1190 2050
2026-05-04 12:15 8.43 360 2520 (1944) 5 (1956) 481 24 36 86 101 246 592 789 1190 2050
2026-05-04 11:15 8.44 363 2520 (1944) 5 (1956) 481 24 36 86 101 246 592 789 1190 2050
2026-05-04 10:15 8.44 363 2520 (1944) 5 (1956) 481 24 36 86 101 246 592 789 1190 2050
2026-05-04 09:15 8.44 363 2520 (1944) 5 (1956) 481 24 36 86 101 246 592 789 1190 2050
2026-05-04 08:15 8.45 366 2520 (1944) 5 (1956) 481 24 36 86 101 246 592 789 1190 2050
2026-05-04 07:15 8.46 368 2520 (1944) 5 (1956) 481 24 36 86 101 246 592 789 1190 2050
2026-05-04 06:15 8.46 368 2520 (1944) 5 (1956) 481 24 36 86 101 246 592 789 1190 2050
2026-05-04 05:15 8.46 368 2520 (1944) 5 (1956) 481 24 36 86 101 246 592 789 1190 2050
2026-05-04 04:15 8.47 371 2520 (1944) 5 (1956) 481 24 36 86 101 246 592 789 1190 2050
2026-05-04 03:15 8.47 371 2520 (1944) 5 (1956) 481 24 36 86 101 246 592 789 1190 2050
2026-05-04 02:15 8.48 373 2520 (1944) 5 (1956) 481 24 36 86 101 246 592 789 1190 2050
2026-05-04 01:15 8.48 373 2520 (1944) 5 (1956) 481 24 36 86 101 246 592 789 1190 2050
2026-05-04 00:15 8.48 373 2520 (1944) 5 (1956) 481 24 36 86 101 246 592 789 1190 2050
2026-05-03 23:15 8.49 376 2520 (1944) 5 (1956) 481 24 36 86 101 246 592 789 1190 2050
2026-05-03 22:15 8.49 376 3990 (1944) 6 (1956) 522 24 39 96 112 231 584 768 1570 1880
2026-05-03 21:15 8.49 376 3990 (1944) 6 (1956) 522 24 39 96 112 231 584 768 1570 1880
2026-05-03 20:15 8.50 379 3990 (1944) 6 (1956) 522 24 39 96 112 231 584 768 1570 1880
2026-05-03 19:15 8.50 379 3990 (1944) 6 (1956) 522 24 39 96 112 231 584 768 1570 1880
2026-05-03 18:15 8.50 379 3990 (1944) 6 (1956) 522 24 39 96 112 231 584 768 1570 1880
2026-05-03 17:15 8.50 379 3990 (1944) 6 (1956) 522 24 39 96 112 231 584 768 1570 1880
2026-05-03 16:15 8.51 381 3990 (1944) 6 (1956) 522 24 39 96 112 231 584 768 1570 1880
2026-05-03 15:15 8.52 384 3990 (1944) 6 (1956) 522 24 39 96 112 231 584 768 1570 1880
2026-05-03 14:15 8.52 384 3990 (1944) 6 (1956) 522 24 39 96 112 231 584 768 1570 1880
2026-05-03 13:15 8.53 386 3990 (1944) 6 (1956) 522 24 39 96 112 231 584 768 1570 1880
2026-05-03 12:15 8.53 386 3990 (1944) 6 (1956) 522 24 39 96 112 231 584 768 1570 1880
2026-05-03 11:15 8.52 384 3990 (1944) 6 (1956) 522 24 39 96 112 231 584 768 1570 1880
2026-05-03 10:15 8.54 389 3990 (1944) 6 (1956) 522 24 39 96 112 231 584 768 1570 1880
2026-05-03 09:15 8.55 392 3990 (1944) 6 (1956) 522 24 39 96 112 231 584 768 1570 1880
2026-05-03 08:15 8.54 389 3990 (1944) 6 (1956) 522 24 39 96 112 231 584 768 1570 1880
2026-05-03 07:15 8.55 392 3990 (1944) 6 (1956) 522 24 39 96 112 231 584 768 1570 1880
2026-05-03 06:15 8.56 394 3990 (1944) 6 (1956) 522 24 39 96 112 231 584 768 1570 1880
2026-05-03 05:15 8.55 392 3990 (1944) 6 (1956) 522 24 39 96 112 231 584 768 1570 1880
2026-05-03 04:15 8.56 394 3990 (1944) 6 (1956) 522 24 39 96 112 231 584 768 1570 1880
2026-05-03 03:15 8.57 397 3990 (1944) 6 (1956) 522 24 39 96 112 231 584 768 1570 1880
2026-05-03 02:15 8.57 397 3990 (1944) 6 (1956) 522 24 39 96 112 231 584 768 1570 1880
2026-05-03 01:15 8.58 400 3990 (1944) 6 (1956) 522 24 39 96 112 231 584 768 1570 1880
2026-05-03 00:15 8.59 403 3990 (1944) 6 (1956) 522 24 39 96 112 231 584 768 1570 1880
2026-05-02 23:15 8.60 405 3990 (1944) 6 (1956) 522 24 39 96 112 231 584 768 1570 1880
2026-05-02 22:15 8.59 403 6290 (1951) 7 (1956) 524 27 40 96 117 237 608 691 1070 2190
2026-05-02 21:15 8.61 408 6290 (1951) 7 (1956) 524 27 40 96 117 237 608 691 1070 2190
2026-05-02 20:15 8.60 405 6290 (1951) 7 (1956) 524 27 40 96 117 237 608 691 1070 2190
2026-05-02 19:15 8.61 408 6290 (1951) 7 (1956) 524 27 40 96 117 237 608 691 1070 2190
2026-05-02 18:15 8.60 405 6290 (1951) 7 (1956) 524 27 40 96 117 237 608 691 1070 2190
2026-05-02 17:15 8.61 408 6290 (1951) 7 (1956) 524 27 40 96 117 237 608 691 1070 2190
2026-05-02 16:15 8.62 411 6290 (1951) 7 (1956) 524 27 40 96 117 237 608 691 1070 2190
2026-05-02 15:15 8.63 413 6290 (1951) 7 (1956) 524 27 40 96 117 237 608 691 1070 2190
2026-05-02 14:15 8.63 413 6290 (1951) 7 (1956) 524 27 40 96 117 237 608 691 1070 2190
2026-05-02 13:15 8.62 411 6290 (1951) 7 (1956) 524 27 40 96 117 237 608 691 1070 2190
2026-05-02 12:15 8.65 419 6290 (1951) 7 (1956) 524 27 40 96 117 237 608 691 1070 2190
2026-05-02 11:15 8.65 419 6290 (1951) 7 (1956) 524 27 40 96 117 237 608 691 1070 2190
2026-05-02 10:15 8.65 419 6290 (1951) 7 (1956) 524 27 40 96 117 237 608 691 1070 2190
2026-05-02 09:15 8.66 422 6290 (1951) 7 (1956) 524 27 40 96 117 237 608 691 1070 2190
2026-05-02 08:15 8.66 422 6290 (1951) 7 (1956) 524 27 40 96 117 237 608 691 1070 2190
2026-05-02 07:15 8.68 427 6290 (1951) 7 (1956) 524 27 40 96 117 237 608 691 1070 2190
2026-05-02 06:15 8.68 427 6290 (1951) 7 (1956) 524 27 40 96 117 237 608 691 1070 2190
2026-05-02 05:15 8.69 430 6290 (1951) 7 (1956) 524 27 40 96 117 237 608 691 1070 2190
2026-05-02 04:15 8.68 427 6290 (1951) 7 (1956) 524 27 40 96 117 237 608 691 1070 2190
2026-05-02 03:15 8.69 430 6290 (1951) 7 (1956) 524 27 40 96 117 237 608 691 1070 2190
2026-05-02 02:15 8.70 433 6290 (1951) 7 (1956) 524 27 40 96 117 237 608 691 1070 2190
2026-05-02 01:15 8.72 438 6290 (1951) 7 (1956) 524 27 40 96 117 237 608 691 1070 2190
2026-05-02 00:15 8.71 436 6290 (1951) 7 (1956) 524 27 40 96 117 237 608 691 1070 2190
2026-05-01 23:15 8.73 441 6290 (1951) 7 (1956) 524 27 40 96 117 237 608 691 1070 2190

A total of 81 rows are displayed for years 1941 through 2025.